owner,sensor,date,latitude,longitude,air_temperature,qcFlag 
TABS,ioos:station:wmo:42045:1,2003-02-01T00:10:00Z,26.2168,-96.4998,20.2,11144222 
TABS,ioos:station:wmo:42045:1,2003-02-01T00:40:00Z,26.2168,-96.4998,20.2,11144222 
TABS,ioos:station:wmo:42045:1,2003-02-01T01:10:00Z,26.2168,-96.4998,20.2,11144222 
TABS,ioos:station:wmo:42045:1,2003-02-01T01:40:00Z,26.2168,-96.4998,20.2,11144222 
TABS,ioos:station:wmo:42045:1,2003-02-01T02:10:00Z,26.2168,-96.4998,20.2,11144222 
TABS,ioos:station:wmo:42045:1,2003-02-01T02:40:00Z,26.2168,-96.4998,20.1,11144222 
TABS,ioos:station:wmo:42045:1,2003-02-01T03:10:00Z,26.2168,-96.4998,20.1,11144222 
TABS,ioos:station:wmo:42045:1,2003-02-01T03:40:00Z,26.2168,-96.4998,20.1,11144222 
TABS,ioos:station:wmo:42045:1,2003-02-01T04:10:00Z,26.2168,-96.4998,20.0,11144222 
TABS,ioos:station:wmo:42045:1,2003-02-01T04:40:00Z,26.2168,-96.4998,20.0,11144222 
TABS,ioos:station:wmo:42045:1,2003-02-01T05:10:00Z,26.2168,-96.4998,20.0,11144222 
TABS,ioos:station:wmo:42045:1,2003-02-01T05:40:00Z,26.2168,-96.4998,20.0,11144222 
TABS,ioos:station:wmo:42045:1,2003-02-01T06:10:00Z,26.2168,-96.4998,20.0,11144222 
TABS,ioos:station:wmo:42045:1,2003-02-01T07:10:00Z,26.2168,-96.4998,20.0,11144222 
TABS,ioos:station:wmo:42045:1,2003-02-01T07:40:00Z,26.2168,-96.4998,19.9,11144222 
TABS,ioos:station:wmo:42045:1,2003-02-01T08:10:00Z,26.2168,-96.4998,19.9,11144222 
TABS,ioos:station:wmo:42045:1,2003-02-01T08:40:00Z,26.2168,-96.4998,19.9,11144222 
TABS,ioos:station:wmo:42045:1,2003-02-01T09:10:00Z,26.2168,-96.4998,19.8,11144222 
TABS,ioos:station:wmo:42045:1,2003-02-01T10:10:00Z,26.2168,-96.4998,19.7,11144222 
TABS,ioos:station:wmo:42045:1,2003-02-01T10:40:00Z,26.2168,-96.4998,19.7,11144222 
TABS,ioos:station:wmo:42045:1,2003-02-01T11:10:00Z,26.2168,-96.4998,19.6,11144222 
TABS,ioos:station:wmo:42045:1,2003-02-01T11:40:00Z,26.2168,-96.4998,19.5,11144222 
TABS,ioos:station:wmo:42045:1,2003-02-01T12:10:00Z,26.2168,-96.4998,19.5,11144222 
TABS,ioos:station:wmo:42045:1,2003-02-01T12:40:00Z,26.2168,-96.4998,19.5,11144222 
TABS,ioos:station:wmo:42045:1,2003-02-01T13:10:00Z,26.2168,-96.4998,19.5,11144222 
TABS,ioos:station:wmo:42045:1,2003-02-01T13:40:00Z,26.2168,-96.4998,19.5,11144222 
TABS,ioos:station:wmo:42045:1,2003-02-01T14:10:00Z,26.2168,-96.4998,19.6,11144222 
TABS,ioos:station:wmo:42045:1,2003-02-01T14:40:00Z,26.2168,-96.4998,19.9,11144222 
TABS,ioos:station:wmo:42045:1,2003-02-01T15:10:00Z,26.2168,-96.4998,19.7,11144222 
TABS,ioos:station:wmo:42045:1,2003-02-01T15:40:00Z,26.2168,-96.4998,20.0,11144222 
TABS,ioos:station:wmo:42045:1,2003-02-01T16:10:00Z,26.2168,-96.4998,20.0,11144222 
TABS,ioos:station:wmo:42045:1,2003-02-01T16:40:00Z,26.2168,-96.4998,20.0,11144222 
TABS,ioos:station:wmo:42045:1,2003-02-01T17:10:00Z,26.2168,-96.4998,20.0,11144222 
TABS,ioos:station:wmo:42045:1,2003-02-01T17:40:00Z,26.2168,-96.4998,20.0,11144222 
TABS,ioos:station:wmo:42045:1,2003-02-01T18:10:00Z,26.2168,-96.4998,20.0,11144222 
TABS,ioos:station:wmo:42045:1,2003-02-01T18:40:00Z,26.2168,-96.4998,20.1,11144222 
TABS,ioos:station:wmo:42045:1,2003-02-01T19:10:00Z,26.2168,-96.4998,20.2,11144222 
TABS,ioos:station:wmo:42045:1,2003-02-01T19:40:00Z,26.2168,-96.4998,20.5,11144222 
TABS,ioos:station:wmo:42045:1,2003-02-01T20:10:00Z,26.2168,-96.4998,20.2,11144222 
TABS,ioos:station:wmo:42045:1,2003-02-01T20:40:00Z,26.2168,-96.4998,20.3,11144222 
TABS,ioos:station:wmo:42045:1,2003-02-01T21:10:00Z,26.2168,-96.4998,20.3,11144222 
TABS,ioos:station:wmo:42045:1,2003-02-01T21:40:00Z,26.2168,-96.4998,20.3,11144222 
TABS,ioos:station:wmo:42045:1,2003-02-01T22:10:00Z,26.2168,-96.4998,20.3,11144222 
TABS,ioos:station:wmo:42045:1,2003-02-01T22:40:00Z,26.2168,-96.4998,20.2,11144222 
TABS,ioos:station:wmo:42045:1,2003-02-01T23:10:00Z,26.2168,-96.4998,20.1,11144222 
TABS,ioos:station:wmo:42045:1,2003-02-01T23:40:00Z,26.2168,-96.4998,20.0,11144222 
TABS,ioos:station:wmo:42045:1,2003-02-02T00:10:00Z,26.2168,-96.4998,20.0,11144222 
TABS,ioos:station:wmo:42045:1,2003-02-02T00:40:00Z,26.2168,-96.4998,20.0,11144222 
TABS,ioos:station:wmo:42045:1,2003-02-02T01:10:00Z,26.2168,-96.4998,20.0,11144222 
TABS,ioos:station:wmo:42045:1,2003-02-02T01:40:00Z,26.2168,-96.4998,20.0,11144222 
TABS,ioos:station:wmo:42045:1,2003-02-02T02:10:00Z,26.2168,-96.4998,20.0,11144222 
TABS,ioos:station:wmo:42045:1,2003-02-02T02:40:00Z,26.2168,-96.4998,20.1,11144222 
TABS,ioos:station:wmo:42045:1,2003-02-02T03:10:00Z,26.2168,-96.4998,20.1,11144222 
TABS,ioos:station:wmo:42045:1,2003-02-02T03:40:00Z,26.2168,-96.4998,20.1,11144222 
TABS,ioos:station:wmo:42045:1,2003-02-02T04:10:00Z,26.2168,-96.4998,20.2,11144222 
TABS,ioos:station:wmo:42045:1,2003-02-02T04:40:00Z,26.2168,-96.4998,20.2,11144222 
TABS,ioos:station:wmo:42045:1,2003-02-02T05:10:00Z,26.2168,-96.4998,20.2,11144222 
TABS,ioos:station:wmo:42045:1,2003-02-02T05:40:00Z,26.2168,-96.4998,20.3,11144222 
TABS,ioos:station:wmo:42045:1,2003-02-02T06:10:00Z,26.2168,-96.4998,20.4,11144222 
TABS,ioos:station:wmo:42045:1,2003-02-02T06:40:00Z,26.2168,-96.4998,20.4,11144222 
TABS,ioos:station:wmo:42045:1,2003-02-02T07:10:00Z,26.2168,-96.4998,20.5,11144222 
TABS,ioos:station:wmo:42045:1,2003-02-02T07:40:00Z,26.2168,-96.4998,20.5,11144222 
TABS,ioos:station:wmo:42045:1,2003-02-02T08:10:00Z,26.2168,-96.4998,20.5,11144222 
TABS,ioos:station:wmo:42045:1,2003-02-02T08:40:00Z,26.2168,-96.4998,20.6,11144222 
TABS,ioos:station:wmo:42045:1,2003-02-02T09:10:00Z,26.2168,-96.4998,20.4,11144222 
TABS,ioos:station:wmo:42045:1,2003-02-02T09:40:00Z,26.2168,-96.4998,20.4,11144222 
TABS,ioos:station:wmo:42045:1,2003-02-02T10:10:00Z,26.2168,-96.4998,20.5,11144222 
TABS,ioos:station:wmo:42045:1,2003-02-02T10:40:00Z,26.2168,-96.4998,20.5,11144222 
TABS,ioos:station:wmo:42045:1,2003-02-02T11:10:00Z,26.2168,-96.4998,20.5,11144222 
TABS,ioos:station:wmo:42045:1,2003-02-02T11:40:00Z,26.2168,-96.4998,20.5,11144222 
TABS,ioos:station:wmo:42045:1,2003-02-02T12:10:00Z,26.2168,-96.4998,20.6,11144222 
TABS,ioos:station:wmo:42045:1,2003-02-02T12:40:00Z,26.2168,-96.4998,20.6,11144222 
TABS,ioos:station:wmo:42045:1,2003-02-02T13:10:00Z,26.2168,-96.4998,20.6,11144222 
TABS,ioos:station:wmo:42045:1,2003-02-02T13:40:00Z,26.2168,-96.4998,20.7,11144222 
TABS,ioos:station:wmo:42045:1,2003-02-02T14:10:00Z,26.2168,-96.4998,20.8,11144222 
TABS,ioos:station:wmo:42045:1,2003-02-02T14:40:00Z,26.2168,-96.4998,20.9,11144222 
TABS,ioos:station:wmo:42045:1,2003-02-02T15:10:00Z,26.2168,-96.4998,20.9,11144222 
TABS,ioos:station:wmo:42045:1,2003-02-02T15:40:00Z,26.2168,-96.4998,21.3,11144222 
TABS,ioos:station:wmo:42045:1,2003-02-02T16:10:00Z,26.2168,-96.4998,21.3,11144222 
TABS,ioos:station:wmo:42045:1,2003-02-02T16:40:00Z,26.2168,-96.4998,21.4,11144222 
TABS,ioos:station:wmo:42045:1,2003-02-02T17:10:00Z,26.2168,-96.4998,21.4,11144222 
TABS,ioos:station:wmo:42045:1,2003-02-02T17:40:00Z,26.2168,-96.4998,21.1,11144222 
TABS,ioos:station:wmo:42045:1,2003-02-02T18:10:00Z,26.2168,-96.4998,21.2,11144222 
TABS,ioos:station:wmo:42045:1,2003-02-02T18:40:00Z,26.2168,-96.4998,21.1,11144222 
TABS,ioos:station:wmo:42045:1,2003-02-02T19:10:00Z,26.2168,-96.4998,21.0,11144222 
TABS,ioos:station:wmo:42045:1,2003-02-02T19:40:00Z,26.2168,-96.4998,21.1,11144222 
TABS,ioos:station:wmo:42045:1,2003-02-02T20:10:00Z,26.2168,-96.4998,21.3,11144222 
TABS,ioos:station:wmo:42045:1,2003-02-02T20:40:00Z,26.2168,-96.4998,21.3,11144222 
TABS,ioos:station:wmo:42045:1,2003-02-02T21:10:00Z,26.2168,-96.4998,21.4,11144222 
TABS,ioos:station:wmo:42045:1,2003-02-02T21:40:00Z,26.2168,-96.4998,21.4,11144222 
TABS,ioos:station:wmo:42045:1,2003-02-02T22:10:00Z,26.2168,-96.4998,21.5,11144222 
TABS,ioos:station:wmo:42045:1,2003-02-02T22:40:00Z,26.2168,-96.4998,21.5,11144222 
TABS,ioos:station:wmo:42045:1,2003-02-02T23:10:00Z,26.2168,-96.4998,21.2,11144222 
TABS,ioos:station:wmo:42045:1,2003-02-02T23:40:00Z,26.2168,-96.4998,21.3,11144222 
TABS,ioos:station:wmo:42045:1,2003-02-03T00:10:00Z,26.2168,-96.4998,21.0,11144222 
TABS,ioos:station:wmo:42045:1,2003-02-03T00:40:00Z,26.2168,-96.4998,21.0,11144222 
TABS,ioos:station:wmo:42045:1,2003-02-03T01:10:00Z,26.2168,-96.4998,21.1,11144222 
TABS,ioos:station:wmo:42045:1,2003-02-03T01:40:00Z,26.2168,-96.4998,21.0,11144222 
TABS,ioos:station:wmo:42045:1,2003-02-03T02:10:00Z,26.2168,-96.4998,21.0,11144222 
TABS,ioos:station:wmo:42045:1,2003-02-03T02:40:00Z,26.2168,-96.4998,21.0,11144222 
TABS,ioos:station:wmo:42045:1,2003-02-03T03:10:00Z,26.2168,-96.4998,21.0,11144222 
TABS,ioos:station:wmo:42045:1,2003-02-03T03:40:00Z,26.2168,-96.4998,21.1,11144222 
TABS,ioos:station:wmo:42045:1,2003-02-03T04:10:00Z,26.2168,-96.4998,21.1,11144222 
TABS,ioos:station:wmo:42045:1,2003-02-03T04:40:00Z,26.2168,-96.4998,21.1,11144222 
TABS,ioos:station:wmo:42045:1,2003-02-03T05:10:00Z,26.2168,-96.4998,21.0,11144222 
TABS,ioos:station:wmo:42045:1,2003-02-03T05:40:00Z,26.2168,-96.4998,21.1,11144222 
TABS,ioos:station:wmo:42045:1,2003-02-03T06:10:00Z,26.2168,-96.4998,21.1,11144222 
TABS,ioos:station:wmo:42045:1,2003-02-03T06:40:00Z,26.2168,-96.4998,21.0,11144222 
TABS,ioos:station:wmo:42045:1,2003-02-03T07:10:00Z,26.2168,-96.4998,21.0,11144222 
TABS,ioos:station:wmo:42045:1,2003-02-03T07:40:00Z,26.2168,-96.4998,21.0,11144222 
TABS,ioos:station:wmo:42045:1,2003-02-03T08:10:00Z,26.2168,-96.4998,21.1,11144222 
TABS,ioos:station:wmo:42045:1,2003-02-03T08:40:00Z,26.2168,-96.4998,21.0,11144222 
TABS,ioos:station:wmo:42045:1,2003-02-03T09:10:00Z,26.2168,-96.4998,21.0,11144222 
TABS,ioos:station:wmo:42045:1,2003-02-03T09:40:00Z,26.2168,-96.4998,20.9,11144222 
TABS,ioos:station:wmo:42045:1,2003-02-03T10:10:00Z,26.2168,-96.4998,20.9,11144222 
TABS,ioos:station:wmo:42045:1,2003-02-03T10:40:00Z,26.2168,-96.4998,20.8,11144222 
TABS,ioos:station:wmo:42045:1,2003-02-03T11:10:00Z,26.2168,-96.4998,20.6,11144222 
TABS,ioos:station:wmo:42045:1,2003-02-03T11:40:00Z,26.2168,-96.4998,20.5,11144222 
TABS,ioos:station:wmo:42045:1,2003-02-03T12:10:00Z,26.2168,-96.4998,20.6,11144222 
TABS,ioos:station:wmo:42045:1,2003-02-03T12:40:00Z,26.2168,-96.4998,20.7,11144222 
TABS,ioos:station:wmo:42045:1,2003-02-03T13:10:00Z,26.2168,-96.4998,21.0,11144222 
TABS,ioos:station:wmo:42045:1,2003-02-03T13:40:00Z,26.2168,-96.4998,21.0,11144222 
TABS,ioos:station:wmo:42045:1,2003-02-03T14:10:00Z,26.2168,-96.4998,21.2,11144222 
TABS,ioos:station:wmo:42045:1,2003-02-03T14:40:00Z,26.2168,-96.4998,21.6,11144222 
TABS,ioos:station:wmo:42045:1,2003-02-03T15:10:00Z,26.2168,-96.4998,21.6,11144222 
TABS,ioos:station:wmo:42045:1,2003-02-03T15:40:00Z,26.2168,-96.4998,21.6,11144222 
TABS,ioos:station:wmo:42045:1,2003-02-03T16:10:00Z,26.2168,-96.4998,21.5,11144222 
TABS,ioos:station:wmo:42045:1,2003-02-03T16:40:00Z,26.2168,-96.4998,21.2,11144222 
TABS,ioos:station:wmo:42045:1,2003-02-03T17:10:00Z,26.2168,-96.4998,21.3,11144222 
TABS,ioos:station:wmo:42045:1,2003-02-03T17:40:00Z,26.2168,-96.4998,21.3,11144222 
TABS,ioos:station:wmo:42045:1,2003-02-03T18:10:00Z,26.2168,-96.4998,21.3,11144222 
TABS,ioos:station:wmo:42045:1,2003-02-03T18:40:00Z,26.2168,-96.4998,21.3,11144222 
TABS,ioos:station:wmo:42045:1,2003-02-03T19:10:00Z,26.2168,-96.4998,21.3,11144222 
TABS,ioos:station:wmo:42045:1,2003-02-03T19:40:00Z,26.2168,-96.4998,21.3,11144222 
TABS,ioos:station:wmo:42045:1,2003-02-03T20:10:00Z,26.2168,-96.4998,21.2,11144222 
TABS,ioos:station:wmo:42045:1,2003-02-03T20:40:00Z,26.2168,-96.4998,21.1,11144222 
TABS,ioos:station:wmo:42045:1,2003-02-03T21:10:00Z,26.2168,-96.4998,21.1,11144222 
TABS,ioos:station:wmo:42045:1,2003-02-03T21:40:00Z,26.2168,-96.4998,21.1,11144222 
TABS,ioos:station:wmo:42045:1,2003-02-03T22:10:00Z,26.2168,-96.4998,21.1,11144222 
TABS,ioos:station:wmo:42045:1,2003-02-03T22:40:00Z,26.2168,-96.4998,21.2,11144222 
TABS,ioos:station:wmo:42045:1,2003-02-03T23:10:00Z,26.2168,-96.4998,21.2,11144222 
TABS,ioos:station:wmo:42045:1,2003-02-03T23:40:00Z,26.2168,-96.4998,21.1,11144222 
TABS,ioos:station:wmo:42045:1,2003-02-04T00:10:00Z,26.2168,-96.4998,20.9,11144222 
TABS,ioos:station:wmo:42045:1,2003-02-04T00:40:00Z,26.2168,-96.4998,20.8,11144222 
TABS,ioos:station:wmo:42045:1,2003-02-04T01:10:00Z,26.2168,-96.4998,20.9,11144222 
TABS,ioos:station:wmo:42045:1,2003-02-04T01:40:00Z,26.2168,-96.4998,20.8,11144222 
TABS,ioos:station:wmo:42045:1,2003-02-04T02:10:00Z,26.2168,-96.4998,20.7,11144222 
TABS,ioos:station:wmo:42045:1,2003-02-04T02:40:00Z,26.2168,-96.4998,20.7,11144222 
TABS,ioos:station:wmo:42045:1,2003-02-04T03:10:00Z,26.2168,-96.4998,20.8,11144222 
TABS,ioos:station:wmo:42045:1,2003-02-04T03:40:00Z,26.2168,-96.4998,20.8,11144222 
TABS,ioos:station:wmo:42045:1,2003-02-04T04:10:00Z,26.2168,-96.4998,20.6,11144222 
TABS,ioos:station:wmo:42045:1,2003-02-04T04:40:00Z,26.2168,-96.4998,20.5,11144222 
TABS,ioos:station:wmo:42045:1,2003-02-04T05:10:00Z,26.2168,-96.4998,20.4,11144222 
TABS,ioos:station:wmo:42045:1,2003-02-04T05:40:00Z,26.2168,-96.4998,20.4,11144222 
TABS,ioos:station:wmo:42045:1,2003-02-04T06:10:00Z,26.2168,-96.4998,20.5,11144222 
TABS,ioos:station:wmo:42045:1,2003-02-04T06:40:00Z,26.2168,-96.4998,20.5,11144222 
TABS,ioos:station:wmo:42045:1,2003-02-04T07:10:00Z,26.2168,-96.4998,20.5,11144222 
TABS,ioos:station:wmo:42045:1,2003-02-04T07:40:00Z,26.2168,-96.4998,20.0,11144222 
TABS,ioos:station:wmo:42045:1,2003-02-04T08:10:00Z,26.2168,-96.4998,20.0,11144222 
TABS,ioos:station:wmo:42045:1,2003-02-04T08:40:00Z,26.2168,-96.4998,19.7,11144222 
TABS,ioos:station:wmo:42045:1,2003-02-04T09:10:00Z,26.2168,-96.4998,19.2,11144222 
TABS,ioos:station:wmo:42045:1,2003-02-04T09:40:00Z,26.2168,-96.4998,19.0,11144222 
TABS,ioos:station:wmo:42045:1,2003-02-04T10:10:00Z,26.2168,-96.4998,18.8,11144222 
TABS,ioos:station:wmo:42045:1,2003-02-04T10:40:00Z,26.2168,-96.4998,18.6,11144222 
TABS,ioos:station:wmo:42045:1,2003-02-04T11:10:00Z,26.2168,-96.4998,18.5,11144222 
TABS,ioos:station:wmo:42045:1,2003-02-04T11:40:00Z,26.2168,-96.4998,18.3,11144222 
TABS,ioos:station:wmo:42045:1,2003-02-04T12:10:00Z,26.2168,-96.4998,18.0,11144222 
TABS,ioos:station:wmo:42045:1,2003-02-04T12:40:00Z,26.2168,-96.4998,17.6,11144222 
TABS,ioos:station:wmo:42045:1,2003-02-04T13:10:00Z,26.2168,-96.4998,17.6,11144222 
TABS,ioos:station:wmo:42045:1,2003-02-04T13:40:00Z,26.2168,-96.4998,17.7,11144222 
TABS,ioos:station:wmo:42045:1,2003-02-04T14:10:00Z,26.2168,-96.4998,17.5,11144222 
TABS,ioos:station:wmo:42045:1,2003-02-04T14:40:00Z,26.2168,-96.4998,17.3,11144222 
TABS,ioos:station:wmo:42045:1,2003-02-04T15:10:00Z,26.2168,-96.4998,17.3,11144222 
TABS,ioos:station:wmo:42045:1,2003-02-04T15:40:00Z,26.2168,-96.4998,17.2,11144222 
TABS,ioos:station:wmo:42045:1,2003-02-04T16:10:00Z,26.2168,-96.4998,17.3,11144222 
TABS,ioos:station:wmo:42045:1,2003-02-04T16:40:00Z,26.2168,-96.4998,17.5,11144222 
TABS,ioos:station:wmo:42045:1,2003-02-04T17:10:00Z,26.2168,-96.4998,17.5,11144222 
TABS,ioos:station:wmo:42045:1,2003-02-04T17:40:00Z,26.2168,-96.4998,17.5,11144222 
TABS,ioos:station:wmo:42045:1,2003-02-04T18:10:00Z,26.2168,-96.4998,17.5,11144222 
TABS,ioos:station:wmo:42045:1,2003-02-04T18:40:00Z,26.2168,-96.4998,17.5,11144222 
TABS,ioos:station:wmo:42045:1,2003-02-04T19:10:00Z,26.2168,-96.4998,17.3,11144222 
TABS,ioos:station:wmo:42045:1,2003-02-04T19:40:00Z,26.2168,-96.4998,17.3,11144222 
TABS,ioos:station:wmo:42045:1,2003-02-04T20:10:00Z,26.2168,-96.4998,17.2,11144222 
TABS,ioos:station:wmo:42045:1,2003-02-04T20:40:00Z,26.2168,-96.4998,17.3,11144222 
TABS,ioos:station:wmo:42045:1,2003-02-04T21:10:00Z,26.2168,-96.4998,17.2,11144222 
TABS,ioos:station:wmo:42045:1,2003-02-04T21:40:00Z,26.2168,-96.4998,17.2,11144222 
TABS,ioos:station:wmo:42045:1,2003-02-04T22:10:00Z,26.2168,-96.4998,17.0,11144222 
TABS,ioos:station:wmo:42045:1,2003-02-04T22:40:00Z,26.2168,-96.4998,16.9,11144222 
TABS,ioos:station:wmo:42045:1,2003-02-04T23:10:00Z,26.2168,-96.4998,17.0,11144222 
TABS,ioos:station:wmo:42045:1,2003-02-04T23:40:00Z,26.2168,-96.4998,16.9,11144222 
TABS,ioos:station:wmo:42045:1,2003-02-05T00:10:00Z,26.2168,-96.4998,16.8,11144222 
TABS,ioos:station:wmo:42045:1,2003-02-05T00:40:00Z,26.2168,-96.4998,16.9,11144222 
TABS,ioos:station:wmo:42045:1,2003-02-05T01:10:00Z,26.2168,-96.4998,16.9,11144222 
TABS,ioos:station:wmo:42045:1,2003-02-05T01:40:00Z,26.2168,-96.4998,17.1,11144222 
TABS,ioos:station:wmo:42045:1,2003-02-05T02:10:00Z,26.2168,-96.4998,17.2,11144222 
TABS,ioos:station:wmo:42045:1,2003-02-05T02:40:00Z,26.2168,-96.4998,17.2,11144222 
TABS,ioos:station:wmo:42045:1,2003-02-05T03:10:00Z,26.2168,-96.4998,17.4,11144222 
TABS,ioos:station:wmo:42045:1,2003-02-05T03:40:00Z,26.2168,-96.4998,17.5,11144222 
TABS,ioos:station:wmo:42045:1,2003-02-05T04:10:00Z,26.2168,-96.4998,17.6,11144222 
TABS,ioos:station:wmo:42045:1,2003-02-05T04:40:00Z,26.2168,-96.4998,17.7,11144222 
TABS,ioos:station:wmo:42045:1,2003-02-05T05:10:00Z,26.2168,-96.4998,17.8,11144222 
TABS,ioos:station:wmo:42045:1,2003-02-05T05:40:00Z,26.2168,-96.4998,17.9,11144222 
TABS,ioos:station:wmo:42045:1,2003-02-05T06:10:00Z,26.2168,-96.4998,18.1,11144222 
TABS,ioos:station:wmo:42045:1,2003-02-05T06:40:00Z,26.2168,-96.4998,18.2,11144222 
TABS,ioos:station:wmo:42045:1,2003-02-05T07:10:00Z,26.2168,-96.4998,18.3,11144222 
TABS,ioos:station:wmo:42045:1,2003-02-05T07:40:00Z,26.2168,-96.4998,18.4,11144222 
TABS,ioos:station:wmo:42045:1,2003-02-05T08:10:00Z,26.2168,-96.4998,18.6,11144222 
TABS,ioos:station:wmo:42045:1,2003-02-05T08:40:00Z,26.2168,-96.4998,18.7,11144222 
TABS,ioos:station:wmo:42045:1,2003-02-05T09:10:00Z,26.2168,-96.4998,18.7,11144222 
TABS,ioos:station:wmo:42045:1,2003-02-05T09:40:00Z,26.2168,-96.4998,18.8,11144222 
TABS,ioos:station:wmo:42045:1,2003-02-05T10:10:00Z,26.2168,-96.4998,18.9,11144222 
TABS,ioos:station:wmo:42045:1,2003-02-05T10:40:00Z,26.2168,-96.4998,19.0,11144222 
TABS,ioos:station:wmo:42045:1,2003-02-05T11:10:00Z,26.2168,-96.4998,19.0,11144222 
TABS,ioos:station:wmo:42045:1,2003-02-05T11:40:00Z,26.2168,-96.4998,19.1,11144222 
TABS,ioos:station:wmo:42045:1,2003-02-05T12:10:00Z,26.2168,-96.4998,19.2,11144222 
TABS,ioos:station:wmo:42045:1,2003-02-05T12:40:00Z,26.2168,-96.4998,19.2,11144222 
TABS,ioos:station:wmo:42045:1,2003-02-05T13:10:00Z,26.2168,-96.4998,19.3,11144222 
TABS,ioos:station:wmo:42045:1,2003-02-05T13:40:00Z,26.2168,-96.4998,19.4,11144222 
TABS,ioos:station:wmo:42045:1,2003-02-05T14:10:00Z,26.2168,-96.4998,19.5,11144222 
TABS,ioos:station:wmo:42045:1,2003-02-05T14:40:00Z,26.2168,-96.4998,19.9,11144222 
TABS,ioos:station:wmo:42045:1,2003-02-05T15:10:00Z,26.2168,-96.4998,20.0,11144222 
TABS,ioos:station:wmo:42045:1,2003-02-05T15:40:00Z,26.2168,-96.4998,20.1,11144222 
TABS,ioos:station:wmo:42045:1,2003-02-05T16:10:00Z,26.2168,-96.4998,20.3,11144222 
TABS,ioos:station:wmo:42045:1,2003-02-05T16:40:00Z,26.2168,-96.4998,20.4,11144222 
TABS,ioos:station:wmo:42045:1,2003-02-05T17:10:00Z,26.2168,-96.4998,20.4,11144222 
TABS,ioos:station:wmo:42045:1,2003-02-05T17:40:00Z,26.2168,-96.4998,20.5,11144222 
TABS,ioos:station:wmo:42045:1,2003-02-05T18:10:00Z,26.2168,-96.4998,20.5,11144222 
TABS,ioos:station:wmo:42045:1,2003-02-05T18:40:00Z,26.2168,-96.4998,20.3,11144222 
TABS,ioos:station:wmo:42045:1,2003-02-05T19:10:00Z,26.2168,-96.4998,20.3,11144222 
TABS,ioos:station:wmo:42045:1,2003-02-05T19:40:00Z,26.2168,-96.4998,20.4,11144222 
TABS,ioos:station:wmo:42045:1,2003-02-05T20:10:00Z,26.2168,-96.4998,20.4,11144222 
TABS,ioos:station:wmo:42045:1,2003-02-05T20:40:00Z,26.2168,-96.4998,20.4,11144222 
TABS,ioos:station:wmo:42045:1,2003-02-05T21:10:00Z,26.2168,-96.4998,20.4,11144222 
TABS,ioos:station:wmo:42045:1,2003-02-05T21:40:00Z,26.2168,-96.4998,20.4,11144222 
TABS,ioos:station:wmo:42045:1,2003-02-05T22:10:00Z,26.2168,-96.4998,20.4,11144222 
TABS,ioos:station:wmo:42045:1,2003-02-05T22:40:00Z,26.2168,-96.4998,20.5,11144222 
TABS,ioos:station:wmo:42045:1,2003-02-05T23:10:00Z,26.2168,-96.4998,20.5,11144222 
TABS,ioos:station:wmo:42045:1,2003-02-05T23:40:00Z,26.2168,-96.4998,20.5,11144222 
TABS,ioos:station:wmo:42045:1,2003-02-06T00:10:00Z,26.2168,-96.4998,20.6,11144222 
TABS,ioos:station:wmo:42045:1,2003-02-06T00:40:00Z,26.2168,-96.4998,20.5,11144222 
TABS,ioos:station:wmo:42045:1,2003-02-06T01:10:00Z,26.2168,-96.4998,20.6,11144222 
TABS,ioos:station:wmo:42045:1,2003-02-06T01:40:00Z,26.2168,-96.4998,20.6,11144222 
TABS,ioos:station:wmo:42045:1,2003-02-06T02:10:00Z,26.2168,-96.4998,20.5,11144222 
TABS,ioos:station:wmo:42045:1,2003-02-06T02:40:00Z,26.2168,-96.4998,20.5,11144222 
TABS,ioos:station:wmo:42045:1,2003-02-06T03:10:00Z,26.2168,-96.4998,20.6,11144222 
TABS,ioos:station:wmo:42045:1,2003-02-06T03:40:00Z,26.2168,-96.4998,20.6,11144222 
TABS,ioos:station:wmo:42045:1,2003-02-06T04:10:00Z,26.2168,-96.4998,20.6,11144222 
TABS,ioos:station:wmo:42045:1,2003-02-06T04:40:00Z,26.2168,-96.4998,20.6,11144222 
TABS,ioos:station:wmo:42045:1,2003-02-06T05:10:00Z,26.2168,-96.4998,20.6,11144222 
TABS,ioos:station:wmo:42045:1,2003-02-06T05:40:00Z,26.2168,-96.4998,20.7,11144222 
TABS,ioos:station:wmo:42045:1,2003-02-06T06:10:00Z,26.2168,-96.4998,20.7,11144222 
TABS,ioos:station:wmo:42045:1,2003-02-06T06:40:00Z,26.2168,-96.4998,20.7,11144222 
TABS,ioos:station:wmo:42045:1,2003-02-06T07:10:00Z,26.2168,-96.4998,20.6,11144222 
TABS,ioos:station:wmo:42045:1,2003-02-06T07:40:00Z,26.2168,-96.4998,20.5,11144222 
TABS,ioos:station:wmo:42045:1,2003-02-06T08:10:00Z,26.2168,-96.4998,20.5,11144222 
TABS,ioos:station:wmo:42045:1,2003-02-06T08:40:00Z,26.2168,-96.4998,20.8,11144222 
TABS,ioos:station:wmo:42045:1,2003-02-06T09:10:00Z,26.2168,-96.4998,20.9,11144222 
TABS,ioos:station:wmo:42045:1,2003-02-06T09:40:00Z,26.2168,-96.4998,20.9,11144222 
TABS,ioos:station:wmo:42045:1,2003-02-06T10:10:00Z,26.2168,-96.4998,21.0,11144222 
TABS,ioos:station:wmo:42045:1,2003-02-06T10:40:00Z,26.2168,-96.4998,21.0,11144222 
TABS,ioos:station:wmo:42045:1,2003-02-06T11:10:00Z,26.2168,-96.4998,21.0,11144222 
TABS,ioos:station:wmo:42045:1,2003-02-06T11:40:00Z,26.2168,-96.4998,21.0,11144222 
TABS,ioos:station:wmo:42045:1,2003-02-06T12:10:00Z,26.2168,-96.4998,21.0,11144222 
TABS,ioos:station:wmo:42045:1,2003-02-06T12:40:00Z,26.2168,-96.4998,21.0,11144222 
TABS,ioos:station:wmo:42045:1,2003-02-06T13:10:00Z,26.2168,-96.4998,20.9,11144222 
TABS,ioos:station:wmo:42045:1,2003-02-06T13:40:00Z,26.2168,-96.4998,20.9,11144222 
TABS,ioos:station:wmo:42045:1,2003-02-06T14:10:00Z,26.2168,-96.4998,20.9,11144222 
TABS,ioos:station:wmo:42045:1,2003-02-06T14:40:00Z,26.2168,-96.4998,20.9,11144222 
TABS,ioos:station:wmo:42045:1,2003-02-06T15:10:00Z,26.2168,-96.4998,21.0,11144222 
TABS,ioos:station:wmo:42045:1,2003-02-06T15:40:00Z,26.2168,-96.4998,21.0,11144222 
TABS,ioos:station:wmo:42045:1,2003-02-06T16:10:00Z,26.2168,-96.4998,21.2,11144222 
TABS,ioos:station:wmo:42045:1,2003-02-06T16:40:00Z,26.2168,-96.4998,21.3,11144222 
TABS,ioos:station:wmo:42045:1,2003-02-06T17:10:00Z,26.2168,-96.4998,21.3,11144222 
TABS,ioos:station:wmo:42045:1,2003-02-06T17:40:00Z,26.2168,-96.4998,21.1,11144222 
TABS,ioos:station:wmo:42045:1,2003-02-06T18:10:00Z,26.2168,-96.4998,21.0,11144222 
TABS,ioos:station:wmo:42045:1,2003-02-06T18:40:00Z,26.2168,-96.4998,20.9,11144222 
TABS,ioos:station:wmo:42045:1,2003-02-06T19:10:00Z,26.2168,-96.4998,20.7,11144222 
TABS,ioos:station:wmo:42045:1,2003-02-06T19:40:00Z,26.2168,-96.4998,19.4,11144222 
TABS,ioos:station:wmo:42045:1,2003-02-06T20:10:00Z,26.2168,-96.4998,19.8,11144222 
TABS,ioos:station:wmo:42045:1,2003-02-06T20:40:00Z,26.2168,-96.4998,20.0,11144222 
TABS,ioos:station:wmo:42045:1,2003-02-06T21:10:00Z,26.2168,-96.4998,19.8,11144222 
TABS,ioos:station:wmo:42045:1,2003-02-06T21:40:00Z,26.2168,-96.4998,19.6,11144222 
TABS,ioos:station:wmo:42045:1,2003-02-06T22:10:00Z,26.2168,-96.4998,18.8,11144222 
TABS,ioos:station:wmo:42045:1,2003-02-06T22:40:00Z,26.2168,-96.4998,19.2,11144222 
TABS,ioos:station:wmo:42045:1,2003-02-06T23:10:00Z,26.2168,-96.4998,19.1,11144222 
TABS,ioos:station:wmo:42045:1,2003-02-06T23:40:00Z,26.2168,-96.4998,18.8,11144222 
TABS,ioos:station:wmo:42045:1,2003-02-07T00:10:00Z,26.2168,-96.4998,18.5,11144222 
TABS,ioos:station:wmo:42045:1,2003-02-07T00:40:00Z,26.2168,-96.4998,18.6,11144222 